TimeCST,TemperatureF,Dew PointF,Humidity,Sea Level PressureIn,VisibilityMPH,Wind Direction,Wind SpeedMPH,Gust SpeedMPH,PrecipitationIn,Events,Conditions,WindDirDegrees,DateUTC
12:15 AM,-9999,-9999,N/A,30.40,-9999.0,East,4.6,-,N/A,,Unknown,90,2012-11-17 06:15:00
12:55 AM,41.0,26.6,57,30.40,10.0,East,3.5,-,N/A,,Clear,90,2012-11-17 06:55:00
1:15 AM,35.6,26.6,70,30.40,10.0,Calm,Calm,-,N/A,,Clear,0,2012-11-17 07:15:00
1:35 AM,39.2,26.6,61,30.40,10.0,East,6.9,-,N/A,,Clear,90,2012-11-17 07:35:00
1:56 AM,39.2,26.6,61,30.40,10.0,East,4.6,-,N/A,,Clear,90,2012-11-17 07:56:00
2:15 AM,-9999,-9999,N/A,30.39,10.0,East,3.5,-,N/A,,Clear,90,2012-11-17 08:15:00
2:55 AM,35.6,26.6,70,30.40,10.0,East,3.5,-,N/A,,Clear,80,2012-11-17 08:55:00
3:15 AM,37.4,26.6,65,30.40,10.0,East,5.8,-,N/A,,Clear,90,2012-11-17 09:15:00
3:16 AM,37.4,26.6,65,30.40,10.0,East,5.8,-,N/A,,Clear,90,2012-11-17 09:16:00
3:55 AM,35.6,26.6,70,30.40,10.0,East,4.6,-,N/A,,Clear,100,2012-11-17 09:55:00
4:15 AM,35.6,26.6,70,30.40,10.0,East,3.5,-,N/A,,Clear,100,2012-11-17 10:15:00
4:35 AM,35.6,26.6,70,30.40,10.0,East,3.5,-,N/A,,Clear,90,2012-11-17 10:35:00
5:15 AM,35.6,26.6,70,30.40,10.0,East,3.5,-,N/A,,Clear,100,2012-11-17 11:15:00
5:55 AM,35.6,26.6,70,30.41,10.0,East,4.6,-,N/A,,Clear,100,2012-11-17 11:55:00
6:15 AM,35.6,26.6,70,30.41,10.0,East,5.8,-,N/A,,Clear,80,2012-11-17 12:15:00
6:36 AM,35.6,24.8,65,30.42,10.0,East,4.6,-,N/A,,Clear,90,2012-11-17 12:36:00
7:15 AM,33.8,24.8,70,30.42,10.0,East,5.8,-,N/A,,Clear,80,2012-11-17 13:15:00
7:55 AM,37.4,26.6,65,30.43,10.0,East,3.5,-,N/A,,Clear,90,2012-11-17 13:55:00
8:15 AM,39.2,28.4,65,30.44,10.0,East,3.5,-,N/A,,Clear,100,2012-11-17 14:15:00
8:35 AM,41.0,28.4,61,30.44,10.0,East,3.5,-,N/A,,Clear,100,2012-11-17 14:35:00
8:55 AM,44.6,30.2,57,30.45,10.0,East,3.5,-,N/A,,Clear,90,2012-11-17 14:55:00
9:15 AM,44.6,30.2,57,30.45,10.0,ESE,3.5,-,N/A,,Clear,120,2012-11-17 15:15:00
9:55 AM,50.0,26.6,40,30.45,10.0,South,3.5,-,N/A,,Clear,170,2012-11-17 15:55:00
10:15 AM,51.8,28.4,41,30.45,10.0,SE,6.9,-,N/A,,Clear,140,2012-11-17 16:15:00
10:36 AM,53.6,28.4,38,30.45,10.0,SSE,8.1,-,N/A,,Clear,150,2012-11-17 16:36:00
10:55 AM,55.4,30.2,38,30.44,10.0,South,6.9,-,N/A,,Clear,180,2012-11-17 16:55:00
11:35 AM,57.2,28.4,33,30.43,10.0,South,9.2,-,N/A,,Clear,190,2012-11-17 17:35:00
11:55 AM,59.0,30.2,34,30.41,10.0,SSW,8.1,-,N/A,,Clear,200,2012-11-17 17:55:00
12:15 PM,60.8,28.4,29,30.40,10.0,SSE,8.1,-,N/A,,Clear,160,2012-11-17 18:15:00
12:35 PM,60.8,28.4,29,30.39,10.0,South,9.2,-,N/A,,Clear,180,2012-11-17 18:35:00
12:55 PM,62.6,26.6,26,30.38,10.0,SSE,8.1,-,N/A,,Clear,160,2012-11-17 18:55:00
1:15 PM,62.6,26.6,26,30.38,10.0,SSW,11.5,-,N/A,,Clear,200,2012-11-17 19:15:00
1:35 PM,62.6,28.4,27,30.37,10.0,SW,8.1,-,N/A,,Clear,220,2012-11-17 19:35:00
1:55 PM,62.6,28.4,27,30.36,10.0,South,12.7,-,N/A,,Clear,190,2012-11-17 19:55:00
2:15 PM,62.6,26.6,26,30.36,10.0,South,10.4,-,N/A,,Clear,170,2012-11-17 20:15:00
2:35 PM,62.6,28.4,27,30.35,10.0,South,11.5,-,N/A,,Clear,180,2012-11-17 20:35:00
2:55 PM,62.6,28.4,27,30.34,10.0,South,11.5,-,N/A,,Clear,170,2012-11-17 20:55:00
3:15 PM,62.6,26.6,26,30.34,10.0,SSE,9.2,-,N/A,,Clear,160,2012-11-17 21:15:00
3:55 PM,62.6,26.6,26,30.33,10.0,South,9.2,-,N/A,,Clear,180,2012-11-17 21:55:00
4:15 PM,60.8,26.6,27,30.33,10.0,SSE,8.1,-,N/A,,Clear,160,2012-11-17 22:15:00
4:36 PM,59.0,26.6,29,30.33,10.0,SSE,9.2,-,N/A,,Clear,150,2012-11-17 22:36:00
4:55 PM,57.2,26.6,31,30.33,10.0,SSE,6.9,-,N/A,,Clear,160,2012-11-17 22:55:00
5:15 PM,57.2,24.8,29,30.33,10.0,SSE,8.1,-,N/A,,Clear,160,2012-11-17 23:15:00
5:35 PM,55.4,24.8,31,30.33,10.0,SSE,6.9,-,N/A,,Clear,160,2012-11-17 23:35:00
5:55 PM,53.6,24.8,33,30.33,10.0,SSE,6.9,-,N/A,,Clear,160,2012-11-17 23:55:00
6:15 PM,51.8,24.8,35,30.34,10.0,South,4.6,-,N/A,,Clear,190,2012-11-18 00:15:00
6:35 PM,51.8,26.6,38,30.34,10.0,South,4.6,-,N/A,,Clear,180,2012-11-18 00:35:00
7:15 PM,51.8,26.6,38,30.34,10.0,South,4.6,-,N/A,,Clear,170,2012-11-18 01:15:00
7:35 PM,50.0,26.6,40,30.34,10.0,SE,4.6,-,N/A,,Clear,140,2012-11-18 01:35:00
8:15 PM,48.2,26.6,43,30.33,10.0,ESE,6.9,-,N/A,,Clear,120,2012-11-18 02:15:00
8:35 PM,48.2,24.8,40,30.33,10.0,ESE,6.9,-,N/A,,Clear,110,2012-11-18 02:35:00
8:55 PM,48.2,24.8,40,30.33,10.0,ESE,8.1,-,N/A,,Clear,110,2012-11-18 02:55:00
9:15 PM,46.4,24.8,43,30.33,10.0,East,8.1,-,N/A,,Clear,100,2012-11-18 03:15:00
9:35 PM,46.4,24.8,43,30.32,10.0,ESE,5.8,-,N/A,,Clear,110,2012-11-18 03:35:00
9:55 PM,44.6,24.8,46,30.33,10.0,East,4.6,-,N/A,,Clear,100,2012-11-18 03:55:00
10:35 PM,44.6,24.8,46,30.34,10.0,ESE,4.6,-,N/A,,Clear,120,2012-11-18 04:35:00
10:55 PM,44.6,24.8,46,30.35,10.0,ESE,5.8,-,N/A,,Clear,110,2012-11-18 04:55:00
11:15 PM,44.6,24.8,46,30.34,10.0,ESE,6.9,-,N/A,,Clear,110,2012-11-18 05:15:00
11:35 PM,44.6,24.8,46,30.34,10.0,ESE,5.8,-,N/A,,Clear,120,2012-11-18 05:35:00